Weather History for KCRG - January, 2012

Change the Weather History Date:

Friday, January 20, 2012

  Actual Average Record
Temperature  
Mean Temperature 57 °F -  
Max Temperature 75 °F 63 °F 77 °F (1999)
Min Temperature 39 °F 42 °F 32 °F (2003)
Degree Days  
Heating Degree Days 8    
Growing Degree Days 7 (Base 50)    
Moisture  
Dew Point 46 °F    
Average Humidity 67    
Maximum Humidity 93    
Minimum Humidity 32    
Precipitation  
Precipitation 0.00 in - - ()
Sea Level Pressure  
Sea Level Pressure 30.16 in    
Wind  
Wind Speed 3 mph (South)    
Max Wind Speed 12 mph    
Max Gust Speed -    
Visibility 10 miles    
Events      
Averages and records for this station are not official NWS values.
T = Trace of Precipitation, MM = Missing Value Source: NWS Daily Summary

Daily Weather History Graph

Daily Weather History Graph

Search for Another Location

Airport or City:

Trip Planner

Search our weather history database for the weather conditions in past years. The results will help you decide how hot, cold, wet, or windy it might be!

Date:

Astronomy

Jan. 20, 2012 Rise Set
Actual Time 7:22 AM EST 5:51 PM EST
Civil Twilight 6:56 AM EST 6:17 PM EST
Nautical Twilight 6:27 AM EST 6:46 PM EST
Astronomical Twilight 5:58 AM EST 7:15 PM EST
Moon 4:53 AM EST (1/20) 3:26 PM EST (1/20)
Length of Visible Light 11h 20m
Length of Day
10h 29m
Waning Crescent, 8% of the Moon is Illuminated
Jan 20
Waning Crescent
Jan 23
New
Jan 30
First Quarter
Feb 7
Full
Feb 14
Last Quarter

Hourly Weather History & Observations

Time (EST) Temp. Dew Point Humidity Pressure Visibility Wind Dir Wind Speed Gust Speed Precip Events Conditions
12:53 AM 42.1 °F 37.9 °F 85% 30.16 in 10.0 mi Calm Calm - N/A   Clear
1:53 AM 41.0 °F 37.9 °F 89% 30.16 in 10.0 mi Calm Calm - N/A   Clear
2:53 AM 43.0 °F 39.0 °F 86% 30.17 in 10.0 mi Calm Calm - N/A   Clear
3:53 AM 41.0 °F 37.0 °F 86% 30.17 in 10.0 mi Calm Calm - N/A   Clear
4:53 AM 39.0 °F 36.0 °F 89% 30.16 in 10.0 mi Calm Calm - N/A   Clear
5:53 AM 42.1 °F 37.9 °F 85% 30.16 in 10.0 mi Calm Calm - N/A   Clear
6:53 AM 39.0 °F 37.0 °F 93% 30.18 in 10.0 mi Calm Calm - N/A   Clear
7:53 AM 42.1 °F 39.9 °F 92% 30.19 in 10.0 mi Calm Calm - N/A   Clear
8:53 AM 55.0 °F 46.9 °F 74% 30.20 in 10.0 mi South 3.5 mph - N/A   Clear
9:53 AM 63.0 °F 48.9 °F 60% 30.21 in 10.0 mi South 5.8 mph - N/A   Clear
10:53 AM 69.1 °F 48.0 °F 47% 30.21 in 10.0 mi South 11.5 mph - N/A   Clear
12:53 PM 73.9 °F 44.1 °F 34% 30.15 in 10.0 mi South 8.1 mph - N/A   Clear
1:53 PM 75.9 °F 44.1 °F 32% 30.13 in 10.0 mi SSW 11.5 mph - N/A   Clear
2:53 PM 75.9 °F 44.1 °F 32% 30.11 in 10.0 mi SSW 11.5 mph - N/A   Clear
3:53 PM 75.0 °F 50.0 °F 41% 30.12 in 10.0 mi ESE 9.2 mph - N/A   Scattered Clouds
4:53 PM 72.0 °F 51.1 °F 48% 30.13 in 10.0 mi SE 9.2 mph - N/A   Mostly Cloudy
5:53 PM 69.1 °F 53.1 °F 57% 30.14 in 10.0 mi SSE 9.2 mph - N/A   Overcast
6:53 PM 68.0 °F 54.0 °F 61% 30.14 in 10.0 mi SSE 6.9 mph - N/A   Overcast
7:53 PM 66.9 °F 55.0 °F 66% 30.15 in 10.0 mi South 6.9 mph - N/A   Overcast
8:53 PM 64.9 °F 54.0 °F 68% 30.16 in 10.0 mi South 6.9 mph - N/A   Overcast
9:53 PM 64.0 °F 53.1 °F 67% 30.16 in 10.0 mi South 9.2 mph - N/A   Clear
10:53 PM 61.0 °F 51.1 °F 70% 30.16 in 10.0 mi SSW 5.8 mph - N/A   Clear
11:53 PM 60.1 °F 52.0 °F 75% 30.15 in 10.0 mi South 5.8 mph - N/A   Clear